This is the latest recevied weather packets stored in our database for station/object SV9TNF-51. If no packets are shown the sender has not sent any weather packets the latest 10 day(s).
| Time | Temp. | Humidity | Pressure | Rain* | Wind** | Luminosity | Snow |
|---|---|---|---|---|---|---|---|
| 1788137554 | 76° F | 63% | 759.4 mmHg | 0 in | 4 mph, 127° | - | - |
| 1788137254 | 76° F | 63% | 760 mmHg | 0 in | 2 mph, 127° | - | - |
| 1788136954 | 76° F | 62% | 760 mmHg | 0 in | 0 mph | - | - |
| 1788136654 | 76° F | 63% | 760 mmHg | 0 in | 5 mph, 89° | - | - |
| 1788136354 | 77° F | 60% | 759.4 mmHg | 0 in | 0 mph | - | - |
| 1788136054 | 76° F | 57% | 759.4 mmHg | 0 in | 0 mph | - | - |
| 1788135754 | 76° F | 66% | 759.4 mmHg | 0 in | 0 mph | - | - |
| 1788135453 | 76° F | 68% | 759.4 mmHg | 0 in | 0 mph | - | - |
| 1788135153 | 76° F | 69% | 759.4 mmHg | 0 in | 0 mph | - | - |
| 1788134853 | 76° F | 69% | 759.4 mmHg | 0 in | 7 mph, 52° | - | - |
| 1788134553 | 76° F | 67% | 759.4 mmHg | 0 in | 0 mph | - | - |
| 1788134253 | 76° F | 65% | 759.4 mmHg | 0 in | 9 mph, 206° | - | - |
| 1788133953 | 76° F | 68% | 759.4 mmHg | 0 in | 8 mph, 22° | - | - |
| 1788133653 | 77° F | 68% | 760 mmHg | 0 in | 9 mph, 354° | - | - |
| 1788133352 | 76° F | 67% | 760 mmHg | 0 in | 7 mph, 357° | - | - |
| 1788133053 | 76° F | 66% | 760 mmHg | 0 in | 11 mph, 337° | - | - |
| 1788132752 | 76° F | 66% | 760 mmHg | 0 in | 11 mph, 325° | - | - |
| 1788132452 | 76° F | 64% | 760 mmHg | 0 in | 10 mph, 354° | - | - |
| 1788132152 | 76° F | 63% | 760 mmHg | 0 in | 11 mph, 331° | - | - |
| 1788131852 | 76° F | 65% | 760 mmHg | 0 in | 4 mph, 345° | - | - |
| 1788131552 | 76° F | 67% | 760 mmHg | 0 in | 4 mph, 85° | - | - |
| 1788131252 | 76° F | 67% | 760 mmHg | 0 in | 9 mph, 28° | - | - |
| 1788130952 | 76° F | 68% | 760 mmHg | 0 in | 5 mph, 348° | - | - |
| 1788130652 | 76° F | 67% | 760 mmHg | 0 in | 9 mph, 15° | - | - |
| 1788130352 | 76° F | 67% | 760 mmHg | 0 in | 9 mph, 328° | - | - |
* Rain latest hour (hover to see other rain measurements)
** Current wind speed in m/s (hover to see current wind gust speed)